DW2447 Weather Reports


time (UTC)temp
F
wind
direction
speed
knots
gust
knots
rain 1hr
in
rain 24hr
in
rain mn
in
humidity
%
barometer
mb
20260509112701 63 87 0.0 0.0 0.00 0.00 0.00 97 1014.1
20260509112158 63 86 0.0 0.0 0.00 0.00 0.00 97 1014.1
20260509111655 63 86 0.0 0.0 0.00 0.00 0.00 97 1013.8
20260509111151 62 87 0.0 0.0 0.00 0.00 0.00 97 1013.6
20260509110649 62 86 0.0 0.0 0.00 0.00 0.00 97 1013.7
20260509110146 62 87 0.0 0.0 0.00 0.00 0.00 97 1013.6
20260509105644 62 87 0.0 0.0 0.00 0.00 0.00 97 1013.5
20260509105141 62 86 0.0 0.0 0.00 0.00 0.00 96 1013.7
20260509104638 62 86 0.0 0.0 0.00 0.00 0.00 96 1013.5
20260509104135 62 86 0.0 0.0 0.00 0.00 0.00 96 1013.5
20260509103633 62 86 0.0 0.0 0.00 0.00 0.00 96 1013.4
20260509103131 62 87 0.0 0.0 0.00 0.00 0.00 96 1013.1
20260509102628 62 87 0.0 0.0 0.00 0.00 0.00 96 1013.3
20260509102125 62 86 0.0 0.0 0.00 0.00 0.00 96 1013.1
20260509101621 62 87 0.0 0.0 0.00 0.00 0.00 96 1013.2
20260509101118 62 87 0.0 0.0 0.00 0.00 0.00 96 1013.2
20260509100615 62 87 0.0 0.0 0.00 0.00 0.00 95 1013.2
20260509100112 62 86 0.0 0.0 0.00 0.00 0.00 95 1013.1
20260509095608 62 86 0.0 0.0 0.00 0.00 0.00 95 1013.1
20260509095106 62 86 0.0 0.0 0.00 0.00 0.00 95 1013.3
20260509094602 62 87 0.0 0.0 0.00 0.00 0.00 95 1013.4
20260509094059 63 87 0.0 0.0 0.00 0.00 0.00 95 1013.4
20260509093558 63 87 0.0 0.0 0.00 0.00 0.00 95 1013.4
20260509093055 63 87 0.0 0.0 0.00 0.00 0.00 95 1013.4
20260509092552 63 86 0.0 0.0 0.00 0.00 0.00 94 1013.6
20260509092051 63 86 0.0 0.0 0.00 0.00 0.00 94 1013.6
20260509091548 63 87 0.0 0.0 0.00 0.00 0.00 94 1013.7
20260509091044 63 87 0.0 0.0 0.00 0.00 0.00 94 1013.6
20260509090542 63 87 0.0 0.0 0.00 0.00 0.00 94 1013.6
20260509090040 63 87 0.0 0.0 0.00 0.00 0.00 94 1013.5
20260509085537 63 87 0.0 0.0 0.00 0.00 0.00 94 1013.5
20260509085032 63 87 0.0 0.0 0.00 0.00 0.00 94 1013.5
20260509084530 63 88 0.0 0.0 0.00 0.00 0.00 94 1013.4
20260509084027 63 85 0.0 0.0 0.00 0.00 0.00 94 1013.6
20260509083525 63 78 0.0 0.0 0.00 0.00 0.00 94 1013.7
20260509083021 63 78 0.0 0.0 0.00 0.00 0.00 93 1013.5
20260509082518 63 73 0.9 0.9 0.00 0.00 0.00 93 1013.2
20260509082015 63 90 0.0 0.0 0.00 0.00 0.00 93 1013.0
20260509081513 63 92 0.0 0.0 0.00 0.00 0.00 93 1013.4
20260509081009 63 92 0.0 0.0 0.00 0.00 0.00 93 1013.8
20260509080507 63 92 0.0 0.0 0.00 0.00 0.00 93 1013.9
20260509080005 63 89 0.0 0.0 0.00 0.00 0.00 93 1014.2
20260509075502 63 88 0.0 0.0 0.00 0.00 0.00 93 1014.3
20260509075000 63 88 0.0 0.0 0.00 0.00 0.00 92 1014.0
20260509074457 63 88 0.0 0.0 0.00 0.00 0.00 92 1013.9
20260509073953 63 88 0.0 0.0 0.00 0.00 0.00 92 1013.9
20260509073450 63 88 0.0 0.0 0.00 0.00 0.00 92 1013.8
20260509072946 63 89 0.0 0.0 0.00 0.00 0.00 92 1013.6
20260509072443 63 88 0.0 0.0 0.00 0.00 0.00 92 1013.8
20260509071940 63 80 0.0 0.0 0.00 0.00 0.00 92 1013.8
20260509071436 63 80 0.0 0.0 0.00 0.00 0.00 92 1013.8
20260509070934 63 81 0.0 0.0 0.00 0.00 0.00 91 1013.8
20260509070431 63 82 0.0 0.0 0.00 0.00 0.00 91 1013.7
20260509065926 63 82 0.0 0.0 0.00 0.00 0.00 91 1013.9
20260509065422 63 81 0.0 0.0 0.00 0.00 0.00 91 1014.0
20260509064919 63 80 0.0 0.0 0.00 0.00 0.00 91 1014.1
20260509064417 63 80 0.0 0.0 0.00 0.00 0.00 91 1014.2
20260509063914 63 80 0.0 0.0 0.00 0.00 0.00 91 1014.4
20260509063410 63 86 0.0 0.0 0.00 0.00 0.00 90 1013.9
20260509062907 63 88 0.0 0.0 0.00 0.00 0.00 90 1014.0
20260509062404 63 88 0.0 0.0 0.00 0.00 0.00 90 1014.4
20260509061902 63 85 0.0 0.0 0.00 0.00 0.00 90 1014.5
20260509061400 64 77 0.0 0.0 0.00 0.00 0.00 90 1015.0
20260509060856 64 76 0.0 0.0 0.00 0.00 0.00 90 1015.3
20260509060353 64 73 0.9 0.9 0.00 0.00 0.00 90 1015.2
20260509055848 64 83 0.0 0.0 0.00 0.00 0.00 89 1015.0
20260509055344 64 85 0.0 0.0 0.00 0.00 0.00 89 1014.9
20260509054841 64 79 1.7 1.7 0.00 0.00 0.00 89 1014.6
20260509054338 64 89 0.0 0.0 0.00 0.00 0.00 89 1015.0
20260509053836 64 89 0.0 0.0 0.00 0.00 0.00 89 1014.5
20260509053333 64 89 0.0 0.0 0.00 0.00 0.00 89 1014.8
20260509052832 64 100 0.0 0.9 0.00 0.00 0.00 89 1015.1
20260509052329 64 73 0.0 0.0 0.00 0.00 0.00 89 1015.0
20260509051826 64 81 0.9 0.9 0.00 0.00 0.00 89 1014.7
20260509051324 64 92 0.0 0.0 0.00 0.00 0.00 89 1015.1
20260509050820 64 74 0.0 0.0 0.00 0.00 0.00 89 1015.5
20260509050317 64 71 0.9 0.9 0.00 0.00 0.00 88 1015.7
20260509045814 64 79 0.0 0.0 0.00 0.00 0.00 88 1015.5
20260509045311 64 78 0.0 0.0 0.00 0.00 0.00 87 1015.4
20260509044808 64 93 0.0 0.0 0.00 0.00 0.00 87 1015.5
20260509044306 64 91 0.0 0.0 0.00 0.00 0.00 87 1015.9
20260509043802 64 94 0.0 0.0 0.00 0.00 0.00 87 1015.9
20260509043258 64 78 0.0 0.0 0.00 0.00 0.00 87 1016.0
20260509042754 64 77 0.0 0.0 0.00 0.00 0.00 87 1016.4
20260509042251 64 76 0.0 0.0 0.00 0.00 0.00 87 1016.3
20260509041748 64 91 0.0 0.0 0.00 0.00 0.00 86 1016.1
20260509041245 64 91 0.0 0.0 0.00 0.00 0.00 86 1015.8
20260509040743 64 91 0.0 0.0 0.00 0.00 0.00 86 1015.9
20260509040240 64 92 0.0 0.0 0.00 0.00 0.00 86 1016.1
20260509035737 64 89 0.0 0.0 0.00 0.00 0.00 86 1016.0
20260509035233 64 91 0.0 0.0 0.00 0.00 0.00 87 1016.3
20260509034730 64 89 0.0 0.0 0.00 0.00 0.00 87 1016.2
20260509034228 64 88 0.0 0.0 0.00 0.00 0.00 87 1016.5
20260509033725 64 88 0.0 0.0 0.00 0.00 0.00 87 1016.4
20260509033222 64 88 0.0 0.0 0.00 0.00 0.00 87 1016.4
20260509032719 64 88 0.0 0.0 0.00 0.00 0.00 87 1016.7
20260509032216 64 88 0.0 0.0 0.00 0.00 0.00 87 1016.7
20260509031713 64 89 0.0 0.0 0.00 0.00 0.00 86 1016.7
20260509031211 64 89 0.0 0.0 0.00 0.00 0.00 85 1016.5
20260509030709 64 89 0.0 0.0 0.00 0.00 0.00 85 1016.7
20260509030206 65 89 0.0 0.0 0.00 0.00 0.00 84 1016.9
20260509025702 64 90 0.0 0.0 0.00 0.00 0.00 84 1016.7
20260509025158 64 90 0.0 0.0 0.00 0.00 0.00 84 1016.8
20260509024653 65 80 0.0 0.0 0.00 0.00 0.00 84 1017.0
20260509024149 65 88 0.0 0.0 0.00 0.00 0.00 83 1016.6
20260509023648 65 87 0.0 0.0 0.00 0.00 0.00 83 1016.5
20260509023144 65 87 0.0 0.0 0.00 0.00 0.00 83 1016.4
20260509022640 65 88 0.0 0.0 0.00 0.00 0.00 83 1016.3
20260509022138 65 73 0.0 0.0 0.00 0.00 0.00 83 1016.4
20260509021635 65 72 0.0 0.0 0.00 0.00 0.00 83 1016.6
20260509021132 65 80 0.0 0.0 0.00 0.00 0.00 83 1016.5
20260509020630 65 83 0.0 0.0 0.00 0.00 0.00 82 1016.6
20260509020127 65 90 0.0 0.9 0.00 0.00 0.00 81 1016.3
20260509015626 65 90 0.0 0.0 0.00 0.00 0.00 81 1016.4
20260509015123 65 90 0.0 0.0 0.00 0.00 0.00 81 1016.4
20260509014619 65 90 0.0 0.0 0.00 0.00 0.00 80 1016.4
20260509014116 65 96 0.9 0.9 0.00 0.00 0.00 80 1016.3
20260509013613 65 90 0.0 0.0 0.00 0.00 0.00 80 1016.3
20260509013108 65 90 0.0 0.0 0.00 0.00 0.00 79 1016.5
20260509012605 65 89 0.0 0.0 0.00 0.00 0.00 79 1016.5
20260509012102 65 89 0.0 0.0 0.00 0.00 0.00 79 1016.3
20260509011600 66 89 0.0 0.0 0.00 0.00 0.00 79 1016.5
20260509011057 66 89 0.0 0.0 0.00 0.00 0.00 79 1016.2
20260509010555 66 89 0.0 0.0 0.00 0.00 0.00 78 1016.1
20260509010051 66 89 0.0 0.0 0.00 0.00 0.00 78 1016.1
20260509005549 66 91 0.0 0.9 0.00 0.00 0.00 77 1016.2
20260509005044 66 92 0.0 0.0 0.00 0.00 0.00 77 1016.2
20260509004541 66 89 0.0 0.0 0.00 0.00 0.00 77 1016.1
20260509004038 66 89 0.0 0.0 0.00 0.00 0.00 77 1016.1
20260509003536 66 89 0.0 0.0 0.00 0.00 0.00 77 1015.9
20260509003033 66 89 0.0 0.0 0.00 0.00 0.00 76 1015.9
20260509002531 66 89 0.0 0.0 0.00 0.00 0.00 76 1015.7
20260509002028 66 82 0.0 0.0 0.00 0.00 0.00 75 1015.5
20260509001525 66 88 0.0 0.0 0.00 0.00 0.00 75 1015.8
20260509001021 66 88 0.0 0.0 0.00 0.00 0.00 74 1015.9
20260509000520 67 89 0.0 0.0 0.00 0.00 0.00 74 1015.8
20260509000015 67 89 0.0 0.0 0.00 0.00 0.00 74 1015.6
20260508235514 67 109 1.7 1.7 0.00 0.00 0.00 73 1015.7
20260508235009 67 90 0.0 0.9 0.00 0.00 0.00 73 1015.5
20260508234507 67 90 0.0 0.9 0.00 0.00 0.00 72 1015.4
20260508234004 67 90 0.0 0.0 0.00 0.00 0.00 71 1015.6
20260508233503 67 87 0.0 0.9 0.00 0.00 0.00 71 1015.2
20260508233000 68 89 0.0 0.0 0.00 0.00 0.00 71 1015.3
20260508232457 68 89 0.0 0.9 0.00 0.00 0.00 70 1015.3
20260508231954 68 90 0.0 0.0 0.00 0.00 0.00 70 1015.3
20260508231451 68 92 0.0 0.0 0.00 0.00 0.00 69 1015.1
20260508230948 68 89 0.0 0.0 0.00 0.00 0.00 70 1015.5
20260508230444 68 106 0.9 0.9 0.00 0.00 0.00 69 1015.5
20260508225941 68 131 1.7 1.7 0.00 0.00 0.00 69 1015.7
20260508225438 68 85 0.0 0.0 0.00 0.00 0.00 70 1015.5
20260508224936 69 91 0.0 0.0 0.00 0.00 0.00 69 1015.6
20260508224433 69 91 0.0 0.0 0.00 0.00 0.00 69 1015.8
20260508223930 69 85 0.9 1.7 0.00 0.00 0.00 68 1015.6
20260508223428 69 96 1.7 1.7 0.00 0.00 0.00 69 1015.4
20260508222925 69 90 0.9 0.9 0.00 0.00 0.00 69 1015.4
20260508222423 69 91 0.0 0.0 0.00 0.00 0.00 69 1015.5
20260508221919 69 87 0.0 0.0 0.00 0.00 0.00 68 1015.4
20260508221415 69 100 2.6 2.6 0.00 0.00 0.00 68 1015.4
20260508220911 70 104 0.9 1.7 0.00 0.00 0.00 67 1015.3
20260508220408 69 93 0.9 0.9 0.00 0.00 0.00 67 1015.4
20260508215904 69 185 2.6 2.6 0.00 0.00 0.00 66 1015.4
20260508215401 70 86 0.0 0.0 0.00 0.00 0.00 67 1015.4
20260508214858 70 173 2.6 2.6 0.00 0.00 0.00 66 1015.4
20260508214355 70 90 0.9 0.9 0.00 0.00 0.00 67 1015.1
20260508213851 70 194 3.5 5.2 0.00 0.00 0.00 67 1015.3
20260508213349 70 85 0.0 0.9 0.00 0.00 0.00 67 1015.3
20260508212844 70 86 0.9 0.9 0.00 0.00 0.00 66 1015.3
20260508212341 71 89 0.9 0.9 0.00 0.00 0.00 66 1015.6
20260508211837 71 170 3.5 5.2 0.00 0.00 0.00 66 1015.3
20260508211333 71 212 4.3 5.2 0.00 0.00 0.00 65 1015.5
20260508210830 71 90 0.0 0.9 0.00 0.00 0.00 65 1015.2
20260508210327 71 145 1.7 1.7 0.00 0.00 0.00 63 1015.4
20260508205824 71 97 0.9 0.9 0.00 0.00 0.00 64 1015.2
20260508205320 71 122 1.7 1.7 0.00 0.00 0.00 64 1015.2
20260508204817 73 194 1.7 2.6 0.00 0.00 0.00 61 1015.1
20260508204314 74 92 0.9 0.9 0.00 0.00 0.00 62 1015.0
20260508203810 73 86 0.0 0.0 0.00 0.00 0.00 63 1015.0
20260508203306 73 160 2.6 2.6 0.00 0.00 0.00 61 1015.4
20260508202801 73 227 2.6 2.6 0.00 0.00 0.00 61 1015.4
20260508202259 73 78 1.7 1.7 0.00 0.00 0.00 60 1015.2
20260508201756 73 97 1.7 1.7 0.00 0.00 0.00 61 1015.2
20260508201253 73 157 1.7 1.7 0.00 0.00 0.00 60 1015.0
20260508200749 75 226 3.5 4.3 0.00 0.00 0.00 58 1015.0
20260508200246 76 92 2.6 4.3 0.00 0.00 0.00 56 1015.3
20260508195742 76 107 1.7 1.7 0.00 0.00 0.00 49 1015.3
20260508195239 76 123 1.7 1.7 0.00 0.00 0.00 48 1015.4
20260508194735 77 141 1.7 1.7 0.00 0.00 0.00 48 1015.4
20260508194233 78 83 0.0 0.9 0.00 0.00 0.00 46 1015.5
20260508193730 78 73 0.9 0.9 0.00 0.00 0.00 46 1015.7
20260508193226 77 83 0.0 0.0 0.00 0.00 0.00 49 1015.7
20260508192722 78 25 2.6 2.6 0.00 0.00 0.00 47 1015.8
20260508192220 76 77 0.0 0.9 0.00 0.00 0.00 48 1015.8
20260508191717 77 82 0.0 0.0 0.00 0.00 0.00 50 1015.5
20260508191214 76 65 1.7 1.7 0.00 0.00 0.00 48 1015.7
20260508190711 76 92 0.9 0.9 0.00 0.00 0.00 48 1015.7
20260508190207 77 88 0.9 1.7 0.00 0.00 0.00 47 1015.7
20260508185704 77 77 0.0 0.0 0.00 0.00 0.00 49 1015.8
20260508185201 77 88 0.9 0.9 0.00 0.00 0.00 49 1015.9
20260508184658 75 62 0.0 0.9 0.00 0.00 0.00 48 1016.2
20260508184155 76 26 2.6 2.6 0.00 0.00 0.00 48 1015.9
20260508183652 75 46 0.9 1.7 0.00 0.00 0.00 50 1016.0
20260508183148 75 75 2.6 2.6 0.00 0.00 0.00 48 1016.3
20260508182644 76 81 0.0 0.9 0.00 0.00 0.00 48 1016.3
20260508182141 76 28 1.7 2.6 0.00 0.00 0.00 47 1016.2
20260508181636 75 78 0.9 0.9 0.00 0.00 0.00 51 1016.7
20260508181134 75 19 2.6 2.6 0.00 0.00 0.00 50 1016.5
20260508180631 75 77 0.0 0.9 0.00 0.00 0.00 51 1016.5
20260508180127 75 121 1.7 1.7 0.00 0.00 0.00 49 1016.5
20260508175624 75 48 0.9 1.7 0.00 0.00 0.00 49 1016.7
20260508175121 75 73 1.7 1.7 0.00 0.00 0.00 48 1017.0
20260508174618 75 88 0.0 0.0 0.00 0.00 0.00 49 1016.7
20260508174115 75 56 0.9 0.9 0.00 0.00 0.00 51 1016.7
20260508173612 75 63 1.7 1.7 0.00 0.00 0.00 49 1016.9
20260508173108 77 80 0.9 0.9 0.00 0.00 0.00 47 1016.7
20260508172606 76 143 0.9 0.9 0.00 0.00 0.00 49 1016.8
20260508172102 76 76 0.0 0.0 0.00 0.00 0.00 49 1017.0
20260508171558 75 66 1.7 2.6 0.00 0.00 0.00 51 1017.0
20260508171055 76 96 1.7 2.6 0.00 0.00 0.00 50 1017.2
20260508170553 76 74 0.0 0.0 0.00 0.00 0.00 50 1017.3
20260508170049 75 92 0.0 0.0 0.00 0.00 0.00 51 1017.3
20260508165547 74 80 0.9 1.7 0.00 0.00 0.00 49 1017.3
20260508165043 73 89 0.0 0.0 0.00 0.00 0.00 51 1017.2
20260508164540 73 83 0.9 1.7 0.00 0.00 0.00 48 1017.4
20260508164037 73 91 0.9 0.9 0.00 0.00 0.00 51 1017.2
20260508163534 73 70 0.9 1.7 0.00 0.00 0.00 49 1017.3
20260508163031 72 106 0.9 0.9 0.00 0.00 0.00 49 1017.6
20260508162528 73 172 1.7 2.6 0.00 0.00 0.00 50 1017.7
20260508162025 71 154 1.7 1.7 0.00 0.00 0.00 49 1017.7
20260508161522 72 71 1.7 1.7 0.00 0.00 0.00 51 1017.5
20260508161019 72 159 0.9 1.7 0.00 0.00 0.00 50 1017.9
20260508160518 72 53 1.7 1.7 0.00 0.00 0.00 55 1017.9
20260508160014 71 68 0.9 0.9 0.00 0.00 0.00 52 1018.3
20260508155511 72 55 2.6 2.6 0.00 0.00 0.00 52 1018.5
20260508155008 71 78 0.9 0.9 0.00 0.00 0.00 52 1018.3
20260508154505 72 94 0.9 1.7 0.00 0.00 0.00 53 1018.4
20260508154002 72 71 0.9 1.7 0.00 0.00 0.00 53 1018.4
20260508153459 71 83 0.9 0.9 0.00 0.00 0.00 55 1018.4
20260508152955 70 61 1.7 1.7 0.00 0.00 0.00 55 1018.5
20260508152452 70 159 1.7 1.7 0.00 0.00 0.00 53 1018.6
20260508151948 70 46 2.6 2.6 0.00 0.00 0.00 55 1018.5
20260508151444 69 77 2.6 2.6 0.00 0.00 0.00 54 1018.5
20260508150941 71 79 2.6 2.6 0.00 0.00 0.00 53 1018.4
20260508150438 69 90 0.9 0.9 0.00 0.00 0.00 56 1018.4
20260508145933 69 65 2.6 2.6 0.00 0.00 0.00 56 1018.6
20260508145431 69 72 3.5 5.2 0.00 0.00 0.00 56 1018.6
20260508144927 68 88 0.9 1.7 0.00 0.00 0.00 60 1018.6
20260508144425 69 103 4.3 7.0 0.00 0.00 0.00 55 1018.4
20260508143922 68 98 0.9 0.9 0.00 0.00 0.00 59 1018.3
20260508143420 68 93 3.5 5.2 0.00 0.00 0.00 59 1018.3
20260508142916 68 84 0.9 1.7 0.00 0.00 0.00 60 1018.3
20260508142413 68 47 3.5 4.3 0.00 0.00 0.00 60 1018.2
20260508141909 67 81 4.3 5.2 0.00 0.00 0.00 60 1018.2
20260508141406 67 84 2.6 2.6 0.00 0.00 0.00 62 1018.2
20260508140904 67 79 0.0 0.9 0.00 0.00 0.00 64 1018.1
20260508140401 67 66 0.9 1.7 0.00 0.00 0.00 64 1018.2
20260508135856 66 85 1.7 1.7 0.00 0.00 0.00 66 1018.2
20260508135353 66 84 3.5 5.2 0.00 0.00 0.00 65 1018.0
20260508134849 67 60 0.9 0.9 0.00 0.00 0.00 65 1017.8
20260508134346 66 80 2.6 4.3 0.00 0.00 0.00 67 1017.9
20260508133843 65 85 2.6 4.3 0.00 0.00 0.00 68 1018.1
20260508133341 65 82 3.5 4.3 0.00 0.00 0.00 68 1017.6
20260508132837 65 73 2.6 2.6 0.00 0.00 0.00 71 1017.8
20260508132335 65 107 0.9 1.7 0.00 0.00 0.00 74 1017.9
20260508131832 64 50 2.6 2.6 0.00 0.00 0.00 74 1017.5
20260508131327 63 74 0.0 0.9 0.00 0.00 0.00 77 1017.6
20260508130824 63 81 1.7 2.6 0.00 0.00 0.00 79 1017.5
20260508130321 62 59 0.9 1.7 0.00 0.00 0.00 80 1017.6
20260508125817 62 76 2.6 2.6 0.00 0.00 0.00 80 1017.5
20260508125314 62 66 0.9 0.9 0.00 0.00 0.00 82 1017.3
20260508124812 62 88 0.0 0.0 0.00 0.00 0.00 84 1017.4
20260508124308 61 81 0.0 0.9 0.00 0.00 0.00 84 1017.4
20260508123807 61 88 2.6 5.2 0.00 0.00 0.00 84 1017.2
20260508123305 61 84 0.0 0.0 0.00 0.00 0.00 84 1017.5
20260508122801 60 80 1.7 2.6 0.00 0.00 0.00 86 1017.1
20260508122258 60 84 0.0 0.9 0.00 0.00 0.00 88 1017.1
20260508121755 60 81 0.0 0.0 0.00 0.00 0.00 88 1017.0
20260508121254 60 84 0.0 0.0 0.00 0.00 0.00 88 1016.9
20260508120750 60 74 0.9 0.9 0.00 0.00 0.00 89 1016.9
20260508120248 60 82 0.9 0.9 0.00 0.00 0.00 89 1017.0
20260508115746 60 74 0.0 0.9 0.00 0.00 0.00 90 1017.0
20260508115243 60 72 0.9 0.9 0.00 0.00 0.00 90 1016.8
20260508114739 60 83 0.0 0.0 0.00 0.00 0.00 90 1016.8
20260508114236 60 82 0.9 1.7 0.00 0.00 0.00 90 1016.6
20260508113732 60 70 0.9 0.9 0.00 0.00 0.00 90 1016.4
20260508113231 60 81 2.6 2.6 0.00 0.00 0.00 90 1016.4